Location: Zagreb
(45.8000°N, 16.0000°E)
Time: 09:33:13
(UTC+02:00)

X-37B - Pass Details

Date: 27 June 2022
Orbit: 328 x 343 km, 45.0° (Epoch: 12 August)

Event Time Altitude Azimuth Distance (km) Brightness Sun altitude
Exits shadow 03:40:17 21° 194° (SSW) 842 1.7 -11.8°
Drops below altitude 10° 03:42:10 10° 155° (SSE) 1,277 2.9 -11.6°
Sets 03:44:26 0° 138° (SE) 2,114 4.2 -11.3°
